EWG9600 EDDL-LPMA

Flight info

Callsign EWG9600
Flight time N/A
Altitude 34000
Route MODRU7Z/05R MODRU Z717 MAS UM617 CIV/N0442F350 N872 MEDIL DCT KOVIN DCT NIDUV DCT KIHVI UN872 ERIGA UN741 AZFIC DCT GATMO DCT LOTEE DCT AGADO DCT UBANI DCT TUNAV/N0442F370 DCT TELMU DCT PECKY DCT LIDRO
Aircraft A320/M-SDE3FGHIRWY/LB1

Departure

Time 2026-05-06 12:56
Airport Düsseldorf Airport (EDDL)

Arrival

Time N/A
Airport Cristiano Ronaldo International Airport (LPMA)
Time Latitude Longitude Altitude Speed Heading
2026-05-06 12:35 51.28038 6.76366 127 ft 0 kts 197°
2026-05-06 12:40 51.28039 6.76366 129 ft 0 kts 197°
2026-05-06 12:41 51.28039 6.76367 128 ft 0 kts 197°
2026-05-06 12:46 51.28041 6.76368 128 ft 2 kts 197°
2026-05-06 12:46 51.28057 6.76375 124 ft 2 kts 197°
2026-05-06 12:46 51.28072 6.76382 122 ft 2 kts 205°
2026-05-06 12:46 51.28084 6.76399 122 ft 2 kts 264°
2026-05-06 12:47 51.28082 6.76422 124 ft 2 kts 298°
2026-05-06 12:47 51.28077 6.76435 123 ft 0 kts 329°
2026-05-06 12:49 51.28078 6.76435 123 ft 1 kts 329°
2026-05-06 12:49 51.28082 6.76431 123 ft 0 kts 329°
2026-05-06 12:49 51.28106 6.76404 123 ft 10 kts 321°
2026-05-06 12:49 51.28139 6.76334 124 ft 7 kts 292°
2026-05-06 12:50 51.28176 6.76266 124 ft 11 kts 324°
2026-05-06 12:50 51.28194 6.76156 126 ft 12 kts 241°
2026-05-06 12:50 51.28133 6.76028 127 ft 15 kts 233°
2026-05-06 12:50 51.28078 6.75912 126 ft 10 kts 233°
2026-05-06 12:51 51.28024 6.75799 127 ft 15 kts 233°
2026-05-06 12:51 51.27970 6.75686 126 ft 13 kts 232°
2026-05-06 12:51 51.27912 6.75564 126 ft 14 kts 232°
2026-05-06 12:51 51.27843 6.75418 123 ft 15 kts 240°
2026-05-06 12:52 51.27864 6.75329 124 ft 9 kts 330°
2026-05-06 12:52 51.27896 6.75305 123 ft 0 kts 333°
2026-05-06 12:52 51.27899 6.75302 124 ft 3 kts 333°
2026-05-06 12:53 51.27940 6.75269 123 ft 6 kts 333°
2026-05-06 12:53 51.27979 6.75259 122 ft 9 kts 11°
2026-05-06 12:53 51.28028 6.75342 121 ft 3 kts 53°
2026-05-06 12:53 51.28029 6.75342 121 ft 0 kts 53°
2026-05-06 12:55 51.28029 6.75343 121 ft 1 kts 53°
2026-05-06 12:55 51.28143 6.75582 126 ft 61 kts 52°
2026-05-06 12:55 51.28518 6.76364 127 ft 116 kts 53°
2026-05-06 12:55 51.29100 6.77591 134 ft 159 kts 50°
2026-05-06 12:56 51.29795 6.79046 626 ft 164 kts 49°
2026-05-06 12:56 51.30514 6.80491 1253 ft 168 kts 48°
2026-05-06 12:56 51.31273 6.81998 1722 ft 181 kts 49°
2026-05-06 12:56 51.32102 6.83652 1921 ft 201 kts 50°
2026-05-06 12:57 51.33016 6.85537 2134 ft 227 kts 50°
2026-05-06 12:57 51.34025 6.87652 2428 ft 251 kts 50°
2026-05-06 12:57 51.35264 6.89635 3142 ft 252 kts 34°
2026-05-06 12:57 51.36813 6.90876 3882 ft 255 kts 15°
2026-05-06 12:58 51.38571 6.91420 4634 ft 259 kts
2026-05-06 12:58 51.40367 6.91883 5329 ft 265 kts
2026-05-06 12:58 51.42204 6.92360 6045 ft 270 kts
2026-05-06 12:58 51.44073 6.92852 6710 ft 274 kts
2026-05-06 12:59 51.45971 6.93341 7370 ft 279 kts
2026-05-06 12:59 51.47904 6.93130 8008 ft 282 kts 342°
2026-05-06 12:59 51.49644 6.91699 8673 ft 283 kts 318°
2026-05-06 12:59 51.50886 6.89320 9330 ft 284 kts 296°
2026-05-06 13:00 51.51642 6.86377 9996 ft 287 kts 289°
2026-05-06 13:00 51.52377 6.83274 10188 ft 308 kts 289°